Outer Banks, North Carolina, United States
Lat: 35.98N, Lon: 75.65W
Wx Zone: NCZ103
Local Info
Past Weather Observations for Today

NOTE: This archive is for the closest National Weather Service station to Outer Banks. Information may differ from the station used for current weather conditions.

Click here for Long-term Archive

Time Weather Temperature Dewpoint Humidity Pressure Winds Precip Visibility
21:35
Clear
75°F / 24°C 64°F / 18°C 69% 30.18 in
(1022 mb)
ENE 5.8 mph
(ENE 9 kph)
- 10SM
21:15
Clear
75°F / 24°C 64°F / 18°C 69% 30.18 in
(1022 mb)
ENE 4.6 mph
(ENE 7 kph)
- 10SM
20:55
Clear
75°F / 24°C 64°F / 18°C 69% 30.18 in
(1022 mb)
NE 6.9 mph
(NE 11 kph)
- 10SM
20:35
Clear
75°F / 24°C 64°F / 18°C 69% 30.18 in
(1022 mb)
NE 6.9 mph
(NE 11 kph)
- 10SM
20:15
Clear
75°F / 24°C 64°F / 18°C 69% 30.18 in
(1022 mb)
NE 5.8 mph
(NE 9 kph)
- 10SM
19:55
Clear
75°F / 24°C 64°F / 18°C 69% 30.18 in
(1022 mb)
NE 6.9 mph
(NE 11 kph)
- 10SM
19:35
Clear
75°F / 24°C 64°F / 18°C 69% 30.15 in
(1021 mb)
NE 5.8 mph
(NE 9 kph)
- 10SM
19:15
Clear
75°F / 24°C 64°F / 18°C 69% 30.15 in
(1021 mb)
ENE 5.8 mph
(ENE 9 kph)
- 10SM
18:55
Clear
75°F / 24°C 64°F / 18°C 69% 30.15 in
(1021 mb)
ENE 8.1 mph
(ENE 13 kph)
- 10SM
18:35
Clear
75°F / 24°C 64°F / 18°C 69% 30.15 in
(1021 mb)
NE 5.8 mph
(NE 9 kph)
- 10SM
18:15
Clear
77°F / 25°C 64°F / 18°C 65% 30.15 in
(1021 mb)
NE 5.8 mph
(NE 9 kph)
- 10SM
17:55
Clear
77°F / 25°C 63°F / 17°C 61% 30.15 in
(1021 mb)
NE 6.9 mph
(NE 11 kph)
- 10SM
17:35
Clear
77°F / 25°C 63°F / 17°C 61% 30.15 in
(1021 mb)
NE 8.1 mph
(NE 13 kph)
- 10SM
17:15
Clear
77°F / 25°C 63°F / 17°C 61% 30.15 in
(1021 mb)
NNE 5.8 mph
(NNE 9 kph)
- 10SM
16:55
Clear
79°F / 26°C 63°F / 17°C 58% 30.15 in
(1021 mb)
NE 4.6 mph
(NE 7 kph)
- 10SM
16:35
Clear
81°F / 27°C 63°F / 17°C 54% 30.15 in
(1021 mb)
NE 8.1 mph
(NE 13 kph)
- 10SM
16:15
Clear
81°F / 27°C 61°F / 16°C 51% 30.15 in
(1021 mb)
NE 9.2 mph
(NE 15 kph)
- 10SM
15:55
Clear
81°F / 27°C 61°F / 16°C 51% 30.15 in
(1021 mb)
NNE 6.9 mph
(NNE 11 kph)
- 10SM
15:35
Clear
81°F / 27°C 63°F / 17°C 54% 30.15 in
(1021 mb)
NNE 5.8 mph
(NNE 9 kph)
- 10SM
15:15
Clear
82°F / 28°C 63°F / 17°C 51% 30.15 in
(1021 mb)
NE 8.1 mph
(NE 13 kph)
- 10SM
14:55
Clear
82°F / 28°C 63°F / 17°C 51% 30.15 in
(1021 mb)
NNE 8.1 mph
(NNE 13 kph)
- 10SM
14:35
Clear
82°F / 28°C 63°F / 17°C 51% 30.15 in
(1021 mb)
NNE 8.1 mph
(NNE 13 kph)
- 10SM
14:15
Clear
82°F / 28°C 63°F / 17°C 51% 30.15 in
(1021 mb)
N 9.2 mph
(N 15 kph)
- 10SM
13:55
Clear
82°F / 28°C 63°F / 17°C 51% 30.15 in
(1021 mb)
NE 8.1 mph
(NE 13 kph)
- 10SM
13:35
Clear
82°F / 28°C 63°F / 17°C 51% 30.15 in
(1021 mb)
N 8.1 mph
(N 13 kph)
- 10SM
13:15
Clear
82°F / 28°C 63°F / 17°C 51% 30.15 in
(1021 mb)
NE 9.2 mph
(NE 15 kph)
- 10SM
12:55
Clear
82°F / 28°C 63°F / 17°C 51% 30.15 in
(1021 mb)
NNE 8.1 mph
(NNE 13 kph)
- 10SM
12:35
Clear
82°F / 28°C 63°F / 17°C 51% 30.15 in
(1021 mb)
NE 9.2 mph
(NE 15 kph)
- 10SM
12:15
Partly Cloudy
82°F / 28°C 64°F / 18°C 55% 30.15 in
(1021 mb)
NE 10.4 mph
(NE 17 kph)
- 10SM
11:55
Mostly Cloudy
82°F / 28°C 64°F / 18°C 55% 30.18 in
(1022 mb)
NE 5.8 mph
(NE 9 kph)
- 10SM
11:35
Mostly Cloudy
82°F / 28°C 63°F / 17°C 51% 30.18 in
(1022 mb)
NE 8.1 mph
(NE 13 kph)
- 10SM
11:15
Mostly Cloudy
81°F / 27°C 63°F / 17°C 54% 30.18 in
(1022 mb)
NNE 8.1 mph
(NNE 13 kph)
- 10SM
10:55
Overcast
81°F / 27°C 63°F / 17°C 54% 30.18 in
(1022 mb)
NNE 4.6 mph
(NNE 7 kph)
- 10SM
10:35
Overcast
81°F / 27°C 63°F / 17°C 54% 30.18 in
(1022 mb)
NNE 6.9 mph
(NNE 11 kph)
- 10SM
10:15
Mostly Cloudy
82°F / 28°C 63°F / 17°C 51% 30.18 in
(1022 mb)
NE 8.1 mph
(NE 13 kph)
- 10SM
09:55
Partly Cloudy
81°F / 27°C 63°F / 17°C 54% 30.15 in
(1021 mb)
NE 10.4 mph
(NE 17 kph)
- 10SM
09:35
Partly Cloudy
81°F / 27°C 63°F / 17°C 54% 30.15 in
(1021 mb)
NE 6.9 mph
(NE 11 kph)
- 10SM
09:15
Partly Cloudy
81°F / 27°C 63°F / 17°C 54% 30.15 in
(1021 mb)
NE 6.9 mph
(NE 11 kph)
- 10SM
08:55
Clear
81°F / 27°C 63°F / 17°C 54% 30.15 in
(1021 mb)
ENE 8.1 mph
(ENE 13 kph)
- 10SM
08:35
Clear
79°F / 26°C 63°F / 17°C 58% 30.15 in
(1021 mb)
NE 6.9 mph
(NE 11 kph)
- 10SM
08:15
Clear
79°F / 26°C 63°F / 17°C 58% 30.12 in
(1020 mb)
NE 9.2 mph
(NE 15 kph)
- 10SM
07:55
Clear
79°F / 26°C 63°F / 17°C 58% 30.12 in
(1020 mb)
NE 8.1 mph
(NE 13 kph)
- 10SM
07:35
Partly Cloudy
77°F / 25°C 63°F / 17°C 61% 30.12 in
(1020 mb)
NE 8.1 mph
(NE 13 kph)
- 10SM
07:15
Partly Cloudy
77°F / 25°C 61°F / 16°C 57% 30.12 in
(1020 mb)
ENE 8.1 mph
(ENE 13 kph)
- 10SM
06:55
Partly Cloudy
75°F / 24°C 61°F / 16°C 61% 30.12 in
(1020 mb)
NE 5.8 mph
(NE 9 kph)
- 10SM
06:35
Mostly Cloudy
75°F / 24°C 63°F / 17°C 65% 30.12 in
(1020 mb)
NE 5.8 mph
(NE 9 kph)
- 10SM
06:15
Overcast
75°F / 24°C 63°F / 17°C 65% 30.09 in
(1019 mb)
NE 5.8 mph
(NE 9 kph)
- 10SM
05:55
Mostly Cloudy
75°F / 24°C 63°F / 17°C 65% 30.09 in
(1019 mb)
ENE 8.1 mph
(ENE 13 kph)
- 10SM
05:35
Overcast
75°F / 24°C 63°F / 17°C 65% 30.09 in
(1019 mb)
ENE 8.1 mph
(ENE 13 kph)
- 10SM
05:15
Mostly Cloudy
75°F / 24°C 63°F / 17°C 65% 30.09 in
(1019 mb)
NE 6.9 mph
(NE 11 kph)
- 10SM
04:55
Partly Cloudy
75°F / 24°C 63°F / 17°C 65% 30.06 in
(1018 mb)
NE 8.1 mph
(NE 13 kph)
- 10SM
04:35
Partly Cloudy
75°F / 24°C 63°F / 17°C 65% 30.06 in
(1018 mb)
NE 8.1 mph
(NE 13 kph)
- 10SM
04:15
Mostly Cloudy
75°F / 24°C 63°F / 17°C 65% 30.06 in
(1018 mb)
ENE 8.1 mph
(ENE 13 kph)
- 10SM
03:55
Partly Cloudy
75°F / 24°C 63°F / 17°C 65% 30.06 in
(1018 mb)
NE 5.8 mph
(NE 9 kph)
- 10SM
03:35
Mostly Cloudy
75°F / 24°C 61°F / 16°C 61% 30.06 in
(1018 mb)
ENE 8.1 mph
(ENE 13 kph)
- 10SM
03:15
Overcast
75°F / 24°C 61°F / 16°C 61% 30.06 in
(1018 mb)
NE 6.9 mph
(NE 11 kph)
- 10SM
02:55
Partly Cloudy
75°F / 24°C 61°F / 16°C 61% 30.06 in
(1018 mb)
NE 6.9 mph
(NE 11 kph)
- 10SM
02:35
Partly Cloudy
75°F / 24°C 61°F / 16°C 61% 30.06 in
(1018 mb)
NE 5.8 mph
(NE 9 kph)
- 10SM
02:15
Mostly Cloudy
75°F / 24°C 61°F / 16°C 61% 30.09 in
(1019 mb)
NE 4.6 mph
(NE 7 kph)
- 10SM
01:55
Overcast
75°F / 24°C 61°F / 16°C 61% 30.09 in
(1019 mb)
ENE 6.9 mph
(ENE 11 kph)
- 10SM
01:35
Overcast
75°F / 24°C 61°F / 16°C 61% 30.09 in
(1019 mb)
ENE 5.8 mph
(ENE 9 kph)
- 10SM
01:15
Overcast
75°F / 24°C 61°F / 16°C 61% 30.09 in
(1019 mb)
ENE 9.2 mph
(ENE 15 kph)
- 10SM
00:55
Overcast
75°F / 24°C 63°F / 17°C 65% 30.09 in
(1019 mb)
ENE 8.1 mph
(ENE 13 kph)
- 10SM
00:35
Overcast
75°F / 24°C 63°F / 17°C 65% 30.09 in
(1019 mb)
NE 6.9 mph
(NE 11 kph)
- 10SM
00:15
Overcast
75°F / 24°C 61°F / 16°C 61% 30.09 in
(1019 mb)
NE 6.9 mph
(NE 11 kph)
- 10SM
Time Weather Temperature Dewpoint Humidity Pressure Winds Precip Visibility


Weather for websites

WeatherForYou.com, LLC is not responsible for any damages or problems caused by this service. Current weather conditions are obtained from the closest station including government and personal stations which may have varying degrees of accuracy. Weather forecasts are derived from the NOAA NDFD. Like all things, this site belongs to Jesus Christ... He just trusts us to maintain it. If you have any questions or comments email webmaster@weatherforyou.com

Copyright © 2015, WeatherForYou.com LLC. All rights reserved.